Weather History for Ontario, OR

Change the Weather History Date:

Monday, July 15, 2013

  Actual Average Record
Temperature  
Mean Temperature 80 °F 76 °F  
Max Temperature 101 °F 94 °F 107 °F (1961)
Min Temperature 59 °F 59 °F 47 °F (1993)
Degree Days  
Heating Degree Days 0 0  
Month to date heating degree days 0 0  
Since 1 June heating degree days 39 52  
Since 1 July heating degree days 0 0  
Cooling Degree Days 15 12  
Month to date cooling degree days 235 150  
Year to date cooling degree days 486 325  
Since 1 June cooling degree days 439 289  
Growing Degree Days 29 (Base 50)    
Moisture  
Dew Point 43 °F    
Average Humidity 36    
Maximum Humidity 60    
Minimum Humidity 11    
Precipitation  
Precipitation 0.00 in 0.01 in 0.09 in (1983)
Month to date precipitation 0.00 0.19  
Year to date precipitation 2.61 5.95  
Sea Level Pressure  
Sea Level Pressure 29.80 in    
Wind  
Wind Speed 5 mph (NW)    
Max Wind Speed 23 mph    
Max Gust Speed 29 mph    
Visibility 10 miles    
Events      
T = Trace of Precipitation, MM = Missing Value Source: NWS Daily Summary

Daily Weather History Graph

Daily Weather History Graph

Search for Another Location

Airport:

Trip Planner

Search our weather history database for the weather conditions in past years. The results will help you decide how hot, cold, wet, or windy it might be!

Date:

Astronomy

Jul. 15, 2013 Rise Set
Actual Time 6:19 AM MDT 9:28 PM MDT
Civil Twilight 5:44 AM MDT 10:03 PM MDT
Nautical Twilight 4:59 AM MDT 10:47 PM MDT
Astronomical Twilight 4:04 AM MDT 11:42 PM MDT
Moon 2:01 PM MDT (7/15) 12:27 AM MDT (7/15)
Length of Visible Light 16h 18m
Length of Day
15h 08m
Waxing Crescent, 46% of the Moon is Illuminated
Jul 15
Waxing Crescent
Jul 15
First Quarter
Jul 22
Full
Jul 29
Last Quarter
Aug 6
New

Hourly Weather History & Observations

Time (MDT) Temp. Dew Point Humidity Pressure Visibility Wind Dir Wind Speed Gust Speed Precip Events Conditions
12:53 AM 68.0 °F 50.0 °F 52% 29.85 in 10.0 mi Calm Calm - N/A   Clear
1:53 AM 75.0 °F 37.0 °F 25% 29.84 in 10.0 mi North 3.5 mph - N/A   Clear
2:53 AM 68.0 °F 44.1 °F 42% 29.86 in 10.0 mi SE 3.5 mph - N/A   Clear
3:53 AM 63.0 °F 48.0 °F 58% 29.86 in 10.0 mi Calm Calm - N/A   Clear
4:53 AM 64.9 °F 45.0 °F 48% 29.87 in 10.0 mi Calm Calm - N/A   Clear
5:53 AM 62.1 °F 44.1 °F 52% 29.87 in 10.0 mi Calm Calm - N/A   Clear
6:53 AM 59.0 °F 45.0 °F 60% 29.88 in 10.0 mi WSW 3.5 mph - N/A   Clear
7:53 AM 66.9 °F 44.1 °F 44% 29.88 in 10.0 mi WSW 4.6 mph - N/A   Clear
8:53 AM 73.0 °F 44.1 °F 35% 29.87 in 10.0 mi West 3.5 mph - N/A   Clear
9:53 AM 77.0 °F 48.0 °F 36% 29.87 in 10.0 mi SSE 3.5 mph - N/A   Clear
10:53 AM 82.0 °F 48.0 °F 30% 29.86 in 10.0 mi Calm Calm - N/A   Clear
11:53 AM 87.1 °F 46.0 °F 24% 29.85 in 10.0 mi East 3.5 mph - N/A   Clear
12:53 PM 91.0 °F 45.0 °F 20% 29.83 in 10.0 mi Variable 3.5 mph - N/A   Clear
1:53 PM 93.9 °F 44.1 °F 18% 29.80 in 10.0 mi Variable 4.6 mph - N/A   Clear
2:53 PM 96.1 °F 39.9 °F 14% 29.78 in 10.0 mi SE 3.5 mph - N/A   Clear
3:53 PM 97.0 °F 37.0 °F 12% 29.75 in 10.0 mi East 4.6 mph - N/A   Clear
4:53 PM 98.1 °F 36.0 °F 11% 29.73 in 10.0 mi Calm Calm - N/A   Clear
5:53 PM 99.0 °F 37.9 °F 12% 29.70 in 10.0 mi ENE 3.5 mph - N/A   Clear
6:53 PM 98.1 °F 51.1 °F 20% 29.69 in 10.0 mi Calm Calm - N/A   Clear
7:53 PM 96.1 °F 46.0 °F 18% 29.67 in 10.0 mi Calm Calm - N/A   Clear
8:53 PM 91.9 °F 51.1 °F 25% 29.68 in 10.0 mi WNW 6.9 mph - N/A   Clear
9:53 PM 87.1 °F 36.0 °F 16% 29.68 in 10.0 mi NW 17.3 mph - N/A   Clear
10:53 PM 84.0 °F 37.0 °F 19% 29.71 in 10.0 mi NNW 18.4 mph 26.5 mph N/A   Clear
11:53 PM 81.0 °F 37.9 °F 21% 29.71 in 10.0 mi NW 17.3 mph - N/A   Clear